Location: ????????
(55.3975°N, 38.2844°E)
Time: 04:26:16
(UTC+00:00)

BlueWalker 3 - Pass Details

Date: 14 August 2024
Orbit: 476 x 487 km, 53.2° (Epoch: 08 September)

Event Time Altitude Azimuth Distance (km) Brightness Sun altitude
Exits shadow 00:21:09 16° 249° (WSW) 1,369 3.6 -11.8°
Maximum altitude 00:24:06 60° 172° (S) 570 2.0 -11.5°
Drops below altitude 10° 00:27:52 10° 92° (E) 1,692 5.2 -11.1°
Sets 00:30:04 0° 89° (E) 2,575 6.3 -10.9°
